• In Belarus
  • List of Countries
  • For 7 days
  • Water Temperature
  • Satellite Maps
  • Weather Map
  • Weather Widgets
  • user-avatar
    Login

    Hourly Weather Santa Bárbara

    Today, 21 January, Monday

    Time Temperature Precipitation Wind Pressure Humidity
    00:00 +20°C° 0.8 mm 1 mps 725 mmHg 98%
    01:00 +20°C° 0.3 mm 1 mps 725 mmHg 98%
    02:00 +20°C° 0.3 mm 1 mps 725 mmHg 98%
    03:00 +20°C° 0.3 mm 1 mps 725 mmHg 98%
    04:00 +19°C° 0.1 mm 1 mps 725 mmHg 98%
    05:00 +19°C° 0.1 mm 1 mps 725 mmHg 98%
    06:00 +19°C° 0.1 mm 1 mps 725 mmHg 98%
    07:00 +19°C° 0.1 mm 1 mps 726 mmHg 97%
    08:00 +19°C° 0.1 mm 1 mps 726 mmHg 97%
    09:00 +19°C° 0.1 mm 1 mps 727 mmHg 96%
    10:00 +19°C° 0.1 mm 1 mps 726 mmHg 93%
    11:00 +20°C° 0.1 mm 1 mps 726 mmHg 91%
    12:00 +20°C° 0.1 mm 1 mps 726 mmHg 88%
    13:00 +21°C° 0.1 mm 1 mps 725 mmHg 86%
    14:00 +21°C° 0.1 mm 1 mps 724 mmHg 85%
    15:00 +21°C° 0.1 mm 1 mps 724 mmHg 83%
    16:00 +20°C° 0 mm 1 mps 724 mmHg 87%
    17:00 +20°C° 0 mm 1 mps 724 mmHg 90%
    18:00 +17°C° 0 mm 0 mps 724 mmHg 93%
    19:00 +17°C° 0 mm 0 mps 724 mmHg 94%
    20:00 +17°C° 0 mm 0 mps 725 mmHg 95%
    21:00 +16°C° 0 mm 0 mps 725 mmHg 96%
    22:00 +16°C° 0 mm 0 mps 725 mmHg 95%
    23:00 +16°C° 0 mm 0 mps 725 mmHg 94%

    Tomorrow, 22 January, Tuesday

    Time Temperature Precipitation Wind Pressure Humidity
    00:00 +17°C° 0 mm 0 mps 725 mmHg 93%
    01:00 +16°C° 0 mm 0 mps 724 mmHg 93%
    02:00 +16°C° 0 mm 0 mps 724 mmHg 93%
    03:00 +16°C° 0 mm 0 mps 723 mmHg 93%
    04:00 +16°C° 0 mm 0 mps 723 mmHg 94%
    05:00 +16°C° 0 mm 0 mps 723 mmHg 94%
    06:00 +15°C° 0 mm 0 mps 723 mmHg 95%
    07:00 +18°C° 0 mm 0 mps 724 mmHg 86%
    08:00 +20°C° 0 mm 0 mps 725 mmHg 77%
    09:00 +23°C° 0 mm 0 mps 725 mmHg 68%
    10:00 +25°C° 0 mm 0 mps 725 mmHg 62%
    11:00 +28°C° 0 mm 1 mps 724 mmHg 56%
    12:00 +30°C° 0 mm 1 mps 724 mmHg 50%
    13:00 +30°C° 0 mm 1 mps 723 mmHg 50%
    14:00 +30°C° 0 mm 1 mps 722 mmHg 50%
    15:00 +30°C° 0 mm 1 mps 721 mmHg 50%
    16:00 +28°C° 0 mm 1 mps 721 mmHg 60%
    17:00 +26°C° 0 mm 1 mps 721 mmHg 69%
    18:00 +24°C° 0 mm 1 mps 721 mmHg 79%
    19:00 +21°C° 0 mm 0 mps 722 mmHg 84%
    20:00 +20°C° 0 mm 0 mps 722 mmHg 90%
    21:00 +19°C° 0 mm 0 mps 723 mmHg 95%
    22:00 +18°C° 0 mm 0 mps 723 mmHg 96%
    23:00 +18°C° 0 mm 0 mps 723 mmHg 96%

    Day after tomorrow, 23 January, Wednesday

    Time Temperature Precipitation Wind Pressure Humidity
    00:00 +20°C° 0 mm 1 mps 723 mmHg 96%
    01:00 +20°C° 0 mm 1 mps 722 mmHg 96%
    02:00 +20°C° 0 mm 1 mps 722 mmHg 95%
    03:00 +19°C° 0 mm 1 mps 721 mmHg 95%
    04:00 +19°C° 0 mm 1 mps 721 mmHg 95%
    05:00 +19°C° 0 mm 1 mps 722 mmHg 95%
    06:00 +18°C° 0 mm 1 mps 722 mmHg 95%
    07:00 +21°C° 0 mm 1 mps 722 mmHg 83%
    08:00 +24°C° 0 mm 1 mps 723 mmHg 72%
    09:00 +27°C° 0 mm 1 mps 723 mmHg 60%
    10:00 +29°C° 0 mm 1 mps 723 mmHg 53%
    11:00 +31°C° 0 mm 1 mps 723 mmHg 46%
    12:00 +33°C° 0 mm 1 mps 722 mmHg 39%
    13:00 +33°C° 0 mm 1 mps 721 mmHg 39%
    14:00 +34°C° 0 mm 2 mps 721 mmHg 38%
    15:00 +35°C° 0 mm 2 mps 720 mmHg 37%
    16:00 +31°C° 0 mm 1 mps 720 mmHg 48%
    17:00 +28°C° 0 mm 1 mps 720 mmHg 59%
    18:00 +26°C° 0 mm 1 mps 720 mmHg 70%
    19:00 +22°C° 0 mm 0 mps 721 mmHg 78%
    20:00 +21°C° 0 mm 0 mps 721 mmHg 86%
    21:00 +20°C° 0 mm 0 mps 722 mmHg 95%
    22:00 +19°C° 0 mm 0 mps 722 mmHg 96%
    23:00 +19°C° 0 mm 0 mps 722 mmHg 96%

    24 January, Thursday

    Time Temperature Precipitation Wind Pressure Humidity
    00:00 +19°C° 0 mm 0 mps 722 mmHg 97%
    01:00 +19°C° 0 mm 0 mps 722 mmHg 97%
    02:00 +20°C° 0 mm 0 mps 722 mmHg 96%
    03:00 +20°C° 0 mm 0 mps 721 mmHg 96%
    04:00 +20°C° 0.3 mm 0 mps 722 mmHg 96%
    05:00 +20°C° 0.3 mm 0 mps 722 mmHg 97%
    06:00 +19°C° 0.3 mm 0 mps 722 mmHg 98%
    07:00 +22°C° 0.3 mm 1 mps 723 mmHg 97%
    08:00 +22°C° 0.3 mm 1 mps 723 mmHg 97%
    09:00 +22°C° 0.3 mm 1 mps 724 mmHg 96%
    10:00 +23°C° 0.1 mm 1 mps 724 mmHg 91%
    11:00 +24°C° 0.1 mm 1 mps 724 mmHg 86%
    12:00 +25°C° 0.1 mm 2 mps 723 mmHg 81%
    13:00 +26°C° 0.1 mm 1 mps 723 mmHg 77%
    14:00 +26°C° 0.1 mm 1 mps 722 mmHg 74%
    15:00 +27°C° 0.1 mm 1 mps 721 mmHg 71%
    16:00 +25°C° 0.1 mm 1 mps 722 mmHg 78%
    17:00 +24°C° 0.1 mm 1 mps 722 mmHg 85%
    18:00 +20°C° 0.1 mm 0 mps 722 mmHg 92%
    19:00 +20°C° 0.1 mm 0 mps 723 mmHg 93%
    20:00 +20°C° 0.1 mm 0 mps 723 mmHg 94%
    21:00 +20°C° 0.1 mm 0 mps 724 mmHg 96%
    22:00 +20°C° 0.1 mm 0 mps 724 mmHg 96%
    23:00 +20°C° 0.1 mm 0 mps 724 mmHg 97%

    25 January, Friday

    Time Temperature Precipitation Wind Pressure Humidity
    00:00 +20°C° 0.1 mm 0 mps 723 mmHg 97%
    01:00 +20°C° 0.1 mm 0 mps 723 mmHg 97%
    02:00 +19°C° 0.1 mm 0 mps 723 mmHg 98%
    03:00 +19°C° 0.1 mm 0 mps 723 mmHg 98%
    04:00 +19°C° 0.1 mm 0 mps 723 mmHg 98%
    05:00 +19°C° 0.1 mm 0 mps 723 mmHg 98%
    06:00 +19°C° 0.1 mm 0 mps 723 mmHg 98%
    07:00 +22°C° 0.1 mm 1 mps 724 mmHg 96%
    08:00 +22°C° 0.1 mm 1 mps 725 mmHg 93%
    09:00 +22°C° 0.1 mm 1 mps 725 mmHg 91%
    10:00 +22°C° 0.2 mm 1 mps 725 mmHg 91%
    11:00 +23°C° 0.2 mm 1 mps 725 mmHg 90%
    12:00 +23°C° 0.2 mm 1 mps 724 mmHg 90%
    13:00 +22°C° 0.6 mm 1 mps 724 mmHg 92%
    14:00 +22°C° 0.6 mm 1 mps 723 mmHg 95%
    15:00 +21°C° 0.6 mm 1 mps 723 mmHg 97%
    16:00 +21°C° 0.8 mm 1 mps 724 mmHg 98%
    17:00 +21°C° 0.8 mm 1 mps 724 mmHg 98%
    18:00 +21°C° 0.8 mm 1 mps 725 mmHg 98%
    19:00 +20°C° 0.9 mm 1 mps 725 mmHg 98%
    20:00 +20°C° 0.9 mm 1 mps 726 mmHg 98%
    21:00 +20°C° 0.9 mm 1 mps 726 mmHg 98%
    22:00 +20°C° 0.7 mm 1 mps 726 mmHg 98%
    23:00 +20°C° 0.7 mm 1 mps 726 mmHg 98%

    26 January, Saturday

    Time Temperature Precipitation Wind Pressure Humidity
    00:00 +20°C° 0.7 mm 1 mps 726 mmHg 98%
    01:00 +19°C° 0.7 mm 1 mps 725 mmHg 98%
    02:00 +19°C° 0.7 mm 1 mps 725 mmHg 98%
    03:00 +19°C° 0.7 mm 1 mps 725 mmHg 98%
    04:00 +19°C° 0.4 mm 1 mps 725 mmHg 98%
    05:00 +18°C° 0.4 mm 1 mps 725 mmHg 98%
    06:00 +18°C° 0.4 mm 1 mps 725 mmHg 98%
    07:00 +18°C° 0.4 mm 1 mps 726 mmHg 97%
    08:00 +18°C° 0.4 mm 1 mps 726 mmHg 97%
    09:00 +18°C° 0.4 mm 1 mps 727 mmHg 97%
    10:00 +18°C° 0.1 mm 1 mps 726 mmHg 95%
    11:00 +19°C° 0.1 mm 1 mps 726 mmHg 93%
    12:00 +19°C° 0.1 mm 1 mps 725 mmHg 91%
    13:00 +19°C° 0.1 mm 1 mps 725 mmHg 89%
    14:00 +19°C° 0.1 mm 1 mps 724 mmHg 88%
    15:00 +19°C° 0.1 mm 1 mps 723 mmHg 86%
    16:00 +19°C° 0.1 mm 1 mps 724 mmHg 89%
    17:00 +18°C° 0.1 mm 1 mps 724 mmHg 91%
    18:00 +16°C° 0.1 mm 0 mps 724 mmHg 93%
    19:00 +16°C° 0 mm 0 mps 725 mmHg 94%
    20:00 +16°C° 0 mm 0 mps 725 mmHg 94%
    21:00 +16°C° 0 mm 0 mps 725 mmHg 95%
    22:00 +16°C° 0 mm 0 mps 725 mmHg 95%
    23:00 +16°C° 0 mm 0 mps 725 mmHg 94%
    Show more